Погода в Нортгемптоне

Великобритания     52°14′11″N   0°53′53″E
темп.,
°C
ветер,
м/с
пор.,
м/с
влажн.,
%
обл.,
%
осадки,
мм/ч
давл.,
гПа
погр.,
м
7 марта, вс
вс700:00−1зсз017756 0.0 103221
03:00−1зсз12780 0.0 103021
06:00−2сз22810 0.0 102929
09:00+2зсз23650 0.0 1029288
12:00+5сз33570 0.0 1028956
15:00+7сз33560 0.0 10251059
18:00+2зсз22790 0.0 102522
21:00+1сз22860 0.0 102622
8 марта, пн
пн800:000сз22920 0.0 102624
03:000зсз33943 0.0 102458
06:000зсз359414 0.0 1025103
09:00+3зсз3680100 0.0 1025225
12:00+7зсз3569100 0.0 1024517
15:00+8зсз2366100 0.0 1023809
18:00+4з228298 0.0 102222
21:00+2зюз338838 0.0 102331
9 марта, вт
вт900:00+1зюз349219 0.0 102355
03:000зюз33940 0.0 102250
06:00−1юз23940 0.0 102243
09:00+3юз46830 0.0 1021284
12:00+8юз696835 0.0 1020786
15:00+8юз6970100 0.0 1017862
18:00+5ююз61384100 0.0 1016525
21:00+4ююз81687100 0.0 1014672
10 марта, ср
ср1000:00+5ююз101887100 0.5 1009979
03:00+6ююз112093100 2.9 1005895
06:00+8юз101893100 4.9 1004874
09:00+9зюз71292100 0.2 1004834
12:00+7зюз4892100 1.5 1003482
15:00+7ююз3896100 1.6 1001383
18:00+8ююз61498100 2.1 997557
21:00+11юз112093100 2.5 9951085
11 марта, чт
чт1100:00+11юз122292100 3.9 9911344
03:00+8зюз152679100 1.4 9881929
06:00+6юз17308292 1.7 9851970
09:00+7зюз17277498 0.3 9871804
12:00+6з14237597 0.3 9941665
15:00+8з12186893 0.1 9971873
18:00+5зюз9187592 0.4 9991343
21:00+4зюз9177643 0.0 10021176